Home   Weather   Santa Clara   Past weeks
Flag for USA

Past Weather in Santa Clara, California, USA — Yesterday and Last 2 Weeks

Now
55 °F

Mostly cloudy.


Feels Like: 53 °F
Forecast: 64 / 52 °F
Wind: 7 mph from West

Location: San Jose International Airport

Current Time: May 26, 2019 at 8:20:01 pm

Latest Report: May 26, 2019 at 6:53 pm


Visibility: 10 mi

Pressure: 29.93 "Hg

Humidity: 77%

Dew Point: 48 °F

Location of Santa ClaraLocation

Past Weather in Santa Clara — Graph

°F

Santa Clara Temperature Yesterday

Maximum temperature yesterday: 70 °F (at 3:53 pm)
Minimum temperature yesterday: 55 °F (at 6:53 am)
Average temperature yesterday: 60 °F

High & Low Weather Summary for the Past Weeks

 TemperatureHumidityPressure
High74 °F (May 23, 2:53 pm)100% (May 15, 9:53 pm)30.15 "Hg (May 15, 9:53 pm)
Low47 °F (May 18, 3:53 am)45% (May 22, 3:53 pm)29.68 "Hg (May 15, 8:53 pm)
Average58 °F79%29.92 "Hg
* Reported May 11 6:53 pm — May 26 6:53 pm, Santa Clara. Weather by CustomWeather, © 2019

Note: Actual official high and low records may vary slightly from our data, if they occured in-between our weather recording intervals... More about our weather records

Advertising

Santa Clara Weather History for the Previous 24 Hours

Scroll right to see more
 ConditionsComfort  
Time TempWeatherWind HumidityBarometerVisibility
6:53 pm
Sun, May 26
55 °FMostly cloudy.7 mph77%29.93 "Hg10 mi
5:53 pm55 °FLight rain. Mostly cloudy.8 mph83%29.93 "Hg10 mi
4:53 pm56 °FLight rain. Mostly cloudy.10 mph72%29.92 "Hg10 mi
4:28 pm59 °FMostly cloudy.14 mph60%29.92 "Hg10 mi
3:53 pm60 °FBroken clouds.15 mph58%29.90 "Hg10 mi
2:53 pm61 °FPartly sunny.14 mph56%29.88 "Hg10 mi
1:53 pm58 °FMostly cloudy.10 mph62%29.89 "Hg10 mi
12:53 pm62 °FBroken clouds.18 mph54%29.87 "Hg10 mi
11:53 am60 °FBroken clouds.16 mph58%29.85 "Hg10 mi
10:53 am56 °FScattered clouds.10 mph72%29.86 "Hg10 mi
9:53 am56 °FBroken clouds.7 mph65%29.85 "Hg10 mi
8:53 am55 °FBroken clouds.15 mph72%29.84 "Hg10 mi
7:53 am55 °FBroken clouds.7 mph77%29.83 "Hg10 mi
6:53 am53 °FBroken clouds.10 mph83%29.81 "Hg10 mi
5:53 am53 °FBroken clouds.8 mph80%29.79 "Hg10 mi
4:53 am53 °FMostly cloudy.7 mph80%29.79 "Hg10 mi
3:53 am54 °FOvercast.18 mph80%29.81 "Hg10 mi
2:53 am55 °FMostly cloudy.7 mph87%29.80 "Hg10 mi
1:53 am55 °FLight rain. Mostly cloudy.9 mph90%29.81 "Hg10 mi
12:53 am56 °FPassing clouds.5 mph77%29.80 "Hg10 mi
11:53 pm
Sat, May 25
56 °FPassing clouds.6 mph77%29.82 "Hg10 mi
11:27 pm56 °FPassing clouds.9 mph77%29.82 "Hg10 mi
10:53 pm56 °FMostly cloudy.10 mph77%29.82 "Hg10 mi
9:53 pm57 °FMostly cloudy.12 mph78%29.82 "Hg10 mi
9:08 pm58 °FMostly cloudy.5 mph78%29.82 "Hg10 mi
8:53 pm58 °FMostly cloudy.6 mph78%29.82 "Hg10 mi
8:29 pm58 °FMostly cloudy.6 mph78%29.81 "Hg10 mi
Weather by CustomWeather, © 2019

See weather overview